AAL383 KLAX-KORD

Flight info

Callsign AAL383
Flight time N/A
Altitude 35000
Route DOTSS2 CLEEE PKE J96 CIM SLN/N0449F370 IRK BENKY6
Aircraft B738/M-SDE2E3FGHIRWXY/LB1

Departure

Time 2026-04-21 14:24
Airport Los Angeles International Airport (KLAX)

Arrival

Time N/A
Airport Chicago O'Hare International Airport (KORD)
Time Latitude Longitude Altitude Speed Heading
2026-04-21 13:48 33.94000 -118.40598 92 ft 0 kts 294°
2026-04-21 14:11 33.93999 -118.40595 92 ft 3 kts 294°
2026-04-21 14:12 33.93993 -118.40567 93 ft 4 kts 249°
2026-04-21 14:12 33.94007 -118.40551 91 ft 3 kts 177°
2026-04-21 14:12 33.94012 -118.40551 91 ft 0 kts 173°
2026-04-21 14:14 33.94009 -118.40550 91 ft 2 kts 172°
2026-04-21 14:15 33.93999 -118.40549 93 ft 2 kts 173°
2026-04-21 14:15 33.93980 -118.40546 92 ft 4 kts 172°
2026-04-21 14:15 33.93948 -118.40539 94 ft 5 kts 172°
2026-04-21 14:15 33.93914 -118.40535 94 ft 5 kts 174°
2026-04-21 14:16 33.93880 -118.40530 94 ft 5 kts 173°
2026-04-21 14:16 33.93846 -118.40520 93 ft 5 kts 152°
2026-04-21 14:16 33.93830 -118.40479 94 ft 6 kts 94°
2026-04-21 14:16 33.93837 -118.40400 95 ft 12 kts 84°
2026-04-21 14:17 33.93849 -118.40293 95 ft 13 kts 83°
2026-04-21 14:17 33.93860 -118.40187 95 ft 13 kts 82°
2026-04-21 14:17 33.93872 -118.40086 95 ft 12 kts 83°
2026-04-21 14:17 33.93881 -118.39985 95 ft 12 kts 84°
2026-04-21 14:18 33.93891 -118.39868 95 ft 17 kts 84°
2026-04-21 14:18 33.93906 -118.39724 94 ft 17 kts 82°
2026-04-21 14:18 33.93921 -118.39586 94 ft 16 kts 82°
2026-04-21 14:18 33.93934 -118.39452 93 ft 16 kts 84°
2026-04-21 14:19 33.93947 -118.39324 92 ft 15 kts 81°
2026-04-21 14:19 33.93961 -118.39202 92 ft 14 kts 83°
2026-04-21 14:19 33.93973 -118.39084 93 ft 14 kts 83°
2026-04-21 14:19 33.93984 -118.38971 95 ft 13 kts 83°
2026-04-21 14:20 33.93995 -118.38864 93 ft 13 kts 82°
2026-04-21 14:20 33.94005 -118.38758 93 ft 12 kts 82°
2026-04-21 14:20 33.94016 -118.38656 95 ft 12 kts 84°
2026-04-21 14:20 33.94026 -118.38556 94 ft 12 kts 82°
2026-04-21 14:21 33.94036 -118.38458 95 ft 12 kts 83°
2026-04-21 14:21 33.94046 -118.38364 95 ft 11 kts 82°
2026-04-21 14:21 33.94056 -118.38272 94 ft 11 kts 79°
2026-04-21 14:21 33.94064 -118.38182 93 ft 11 kts 83°
2026-04-21 14:22 33.94073 -118.38098 92 ft 10 kts 83°
2026-04-21 14:22 33.94071 -118.38022 92 ft 9 kts 118°
2026-04-21 14:22 33.94028 -118.37996 92 ft 7 kts 169°
2026-04-21 14:22 33.93988 -118.38010 92 ft 6 kts 236°
2026-04-21 14:23 33.93980 -118.38054 92 ft 4 kts 261°
2026-04-21 14:23 33.93960 -118.38259 97 ft 57 kts 262°
2026-04-21 14:23 33.93878 -118.39021 94 ft 125 kts 265°
2026-04-21 14:23 33.93744 -118.40271 169 ft 172 kts 261°
2026-04-21 14:24 33.93545 -118.41771 695 ft 187 kts 261°
2026-04-21 14:24 33.93372 -118.43351 1419 ft 194 kts 263°
2026-04-21 14:24 33.93226 -118.45020 2023 ft 209 kts 262°
2026-04-21 14:24 33.92969 -118.46823 2182 ft 230 kts 245°
2026-04-21 14:25 33.91902 -118.48342 2506 ft 246 kts 218°
2026-04-21 14:25 33.90601 -118.49701 3162 ft 255 kts 225°
2026-04-21 14:25 33.89423 -118.51315 3945 ft 257 kts 230°
2026-04-21 14:25 33.88295 -118.52955 4889 ft 254 kts 230°
2026-04-21 14:26 33.87162 -118.54579 5666 ft 254 kts 227°
2026-04-21 14:26 33.85678 -118.55732 6359 ft 260 kts 198°
2026-04-21 14:26 33.83875 -118.55926 7108 ft 265 kts 176°